KC3OXK Weather Reports


time (UTC)temp
C
wind
direction
speed
KPH
gust
KPH
rain 1hr
cm
rain 24hr
cm
rain mn
cm
humidity
%
barometer
mb
20260505200030 26 221 19.3 37.0 0.00 0.05 0.05 38 1006.5
20260505194536 26 164 17.7 38.6 0.00 0.05 0.05 38 1006.8
20260505193027 26 214 19.3 33.8 0.00 0.05 0.05 39 1006.9
20260505191531 26 219 16.1 35.4 0.00 0.05 0.05 37 1007.0
20260505190036 26 213 19.3 33.8 0.00 0.05 0.05 39 1007.0
20260505184533 26 189 22.5 33.8 0.00 0.05 0.05 40 1007.3
20260505183030 26 209 17.7 33.8 0.00 0.05 0.05 41 1007.6
20260505181535 25 240 11.3 33.8 0.00 0.05 0.05 44 1007.9
20260505180040 26 230 19.3 29.0 0.00 0.05 0.05 45 1008.1
20260505174533 25 191 12.9 30.6 0.00 0.05 0.05 46 1008.1
20260505173030 25 187 14.5 29.0 0.00 0.05 0.05 47 1008.3
20260505171528 25 182 16.1 30.6 0.00 0.05 0.05 47 1008.4
20260505170030 25 217 12.9 30.6 0.00 0.05 0.05 47 1008.4
20260505164528 25 233 12.9 30.6 0.00 0.05 0.05 48 1008.7
20260505163028 25 255 12.9 24.1 0.00 0.05 0.05 47 1008.8
20260505161532 24 246 12.9 24.1 0.00 0.05 0.05 48 1009.2
20260505153028 23 191 11.3 20.9 0.00 0.05 0.05 50 1009.4
20260505151534 23 244 14.5 29.0 0.00 0.05 0.05 50 1009.5
20260505124542 17 245 8.0 14.5 0.00 0.05 0.05 66 1010.3
20260505123033 17 257 4.8 9.7 0.00 0.05 0.05 69 1010.5
20260505121559 17 248 3.2 8.0 0.00 0.05 0.05 71 1010.3
20260505120029 17 0 0.0 1.6 0.00 0.05 0.05 75 1010.3
20260505114533 16 0 0.0 0.0 0.00 0.05 0.05 78 1010.4
20260505113032 16 0 0.0 3.2 0.00 0.05 0.05 80 1010.0
20260505111536 15 0 0.0 8.0 0.00 0.05 0.05 80 1010.0
20260505101528 11 0 0.0 0.0 0.00 0.05 0.05 91 1009.8
20260505100038 11 0 0.0 0.0 0.00 0.05 0.05 90 1009.5
20260505094528 11 0 0.0 0.0 0.00 0.05 0.05 89 1009.3
20260505093033 11 0 0.0 0.0 0.00 0.05 0.05 89 1009.4
20260505091535 11 0 0.0 0.0 0.00 0.05 0.05 88 1009.2
20260505090030 11 0 0.0 0.0 0.00 0.05 0.05 88 1009.3
20260505084530 12 0 0.0 0.0 0.00 0.05 0.05 87 1009.2
20260505083041 12 302 0.0 0.0 0.00 0.05 0.05 86 1009.2
20260505081532 12 0 0.0 1.6 0.00 0.05 0.05 85 1009.2
20260505080043 13 318 0.0 3.2 0.00 0.05 0.05 84 1009.0
20260505074527 13 311 0.0 3.2 0.03 0.05 0.05 84 1008.9
20260505073027 13 288 1.6 4.8 0.05 0.05 0.05 83 1008.8
20260505071537 14 290 1.6 4.8 0.05 0.05 0.05 82 1008.7
20260505070030 14 271 1.6 3.2 0.05 0.05 0.05 83 1008.7
20260505064530 16 0 0.0 3.2 0.03 0.03 0.03 74 1009.2
20260505063042 16 0 0.0 0.0 0.00 0.00 0.00 69 1008.7
20260505061533 16 0 0.0 1.6 0.00 0.00 0.00 66 1008.8
20260505060032 16 0 0.0 3.2 0.00 0.00 0.00 66 1008.9
20260505054538 17 269 0.0 6.4 0.00 0.00 0.00 63 1009.0
20260505053028 16 277 0.0 1.6 0.00 0.00 0.00 62 1009.1
20260505051537 16 0 0.0 1.6 0.00 0.00 0.00 63 1009.1
20260505041543 17 278 0.0 8.0 0.00 0.00 0.00 60 1008.9
20260505040034 17 273 0.0 6.4 0.00 0.00 0.00 59 1008.6
20260505034529 17 0 0.0 9.7 0.00 0.00 0.00 58 1008.6
20260505033030 17 238 1.6 8.0 0.00 0.00 0.00 57 1008.5
20260505031531 17 287 0.0 6.4 0.00 0.00 0.00 58 1008.4
20260505030027 18 238 0.0 11.3 0.00 0.00 0.00 56 1008.5
20260505024530 18 270 1.6 6.4 0.00 0.00 0.00 56 1008.5
20260505023028 20 236 3.2 16.1 0.00 0.00 0.00 50 1008.4
20260505021528 20 250 6.4 20.9 0.00 0.00 0.00 49 1008.5
20260505020034 20 217 9.7 19.3 0.00 0.00 0.00 49 1008.6
20260505014530 20 219 9.7 22.5 0.00 0.00 0.00 49 1008.5
20260505013031 20 248 8.0 14.5 0.00 0.00 0.00 48 1008.4
20260505011528 20 156 6.4 20.9 0.00 0.00 0.00 48 1008.2
20260505010032 20 217 8.0 19.3 0.00 0.00 0.00 47 1008.2
20260505004531 20 229 8.0 16.1 0.00 0.00 0.00 48 1008.0
20260505003031 20 220 8.0 14.5 0.00 0.00 0.00 47 1007.9
20260505001528 21 236 9.7 22.5 0.00 0.00 0.00 47 1008.0
20260505000031 21 221 6.4 16.1 0.00 0.00 0.00 48 1007.8
20260504234530 21 219 6.4 17.7 0.00 0.00 0.00 47 1007.8
20260504233027 21 223 6.4 19.3 0.00 0.00 0.00 47 1007.7
20260504231533 21 226 16.1 27.4 0.00 0.00 0.00 44 1007.5
20260504230029 22 150 9.7 30.6 0.00 0.00 0.00 44 1007.4
20260504224535 22 207 14.5 32.2 0.00 0.00 0.00 43 1007.3
20260504223031 22 239 12.9 24.1 0.00 0.00 0.00 41 1007.3
20260504221529 22 206 9.7 27.4 0.00 0.00 0.00 41 1007.3
20260504220030 22 226 16.1 35.4 0.00 0.00 0.00 42 1007.3
20260504214540 22 251 17.7 27.4 0.00 0.00 0.00 41 1007.4
20260504213031 23 154 19.3 37.0 0.00 0.00 0.00 38 1007.5
20260504211527 22 219 14.5 24.1 0.00 0.00 0.00 41 1007.5
20260504210028 23 210 12.9 20.9 0.00 0.00 0.00 39 1007.4
20260504204529 23 221 6.4 19.3 0.00 0.00 0.00 41 1007.6
20260504203031 22 218 12.9 27.4 0.00 0.00 0.00 39 1007.9
20260504201528 22 238 9.7 27.4 0.00 0.00 0.00 42 1008.2